Location: Paris
(48.6709°N, 2.3750°E)
Time: 12:41:48
(UTC+02:00)

Gurwin Techsat 1B - Pass Details

Date: 04 July 2022
Orbit: 812 x 813 km, 98.8° (Epoch: 07 August)

Event Time Altitude Azimuth Distance (km) Brightness Sun altitude
Rises 04:30:19 0° 15° (NNE) 3,347 13.3 -10.5°
Reaches altitude 10° 04:32:40 10° 17° (NNE) 2,411 12.4 -10.2°
Maximum altitude 04:38:01 80° 105° (ESE) 830 8.7 -9.7°
Drops below altitude 10° 04:43:20 10° 192° (SSW) 2,394 10.5 -9.2°
Enters shadow 04:43:43 - 193° (SSW) 2,548 10.6 -9.1°
